sat.trackr.live / text

‹ back to catalog

STARLINK-32592

NORAD 62035 · 2024-216D

PAYLOAD ACTIVE UNKNOWN

§ Identity

Operator
Country
US
Launch date
2024-11-21
Launch site
AFETR
Launch vehicle
Mass (kg)
RCS (m²)

Purposes: comms

External: N2YO · Heavens-Above · Gunter

§ Orbital elements

Epoch: 2026-05-25T03:29:39.496128Z

Period
94.27 min
Inclination
42.9985°
Eccentricity
0.0000975
Mean motion
15.27604576 rev/d
Perigee alt
482.3 km
Apogee alt
483.6 km
Semi-major
6,861.1 km
B*
3.4555e-4
RAAN
191.8865°
Arg perigee
289.1817°
Mean anomaly
70.8929°
Rev number
8,549

§ Raw data

STARLINK-325921 62035U 24216D   26145.14559602  .00009266  00000+0  34555-3 0  99982 62035  42.9985 191.8865 0000975 289.1817  70.8929 15.27604576 85494

JSON: /api/v1/satellites/62035 · /tle

For live sub-satellite position, see the globe view (requires WebGL).

§ Visibility from observer

Set your observer location to see the next 7 days of passes ≥ 10°. The values pass through the URL so the page stays shareable.

No JS? Fill the form by hand. The geolocation button needs JavaScript.